DW8935 Weather Reports


time (UTC)temp
C
wind
direction
speed
KPH
gust
KPH
rain 1hr
cm
rain 24hr
cm
rain mn
cm
humidity
%
barometer
mb
20260905201525 11 271 1.6 4.8 0.00 0.00 0.00 93 1018.1
20260905200022 11 263 0.0 6.4 0.00 0.00 0.00 93 1017.8
20260905194521 11 279 0.0 6.4 0.00 0.00 0.00 93 1017.8
20260905193020 11 271 1.6 9.7 0.00 0.00 0.00 93 1017.6
20260905191519 11 225 1.6 12.9 0.00 0.00 0.00 93 1017.6
20260905190017 11 232 1.6 9.7 0.00 0.00 0.00 92 1017.3
20260905184616 11 225 4.8 14.5 0.00 0.00 0.00 92 1017.0
20260905183014 12 284 4.8 16.1 0.00 0.00 0.00 92 1016.7
20260905181512 12 259 6.4 27.4 0.00 0.00 0.00 92 1016.5
20260905180014 11 267 6.4 16.1 0.00 0.00 0.00 92 1016.0
20260905174508 11 269 4.8 12.9 0.00 0.00 0.00 92 1015.6
20260905173007 11 264 3.2 11.3 0.00 0.00 0.00 92 1015.4
20260905171504 11 272 3.2 12.9 0.00 0.00 0.00 92 1015.1
20260905170002 11 253 3.2 14.5 0.00 0.00 0.00 92 1014.8
20260905164600 11 253 4.8 17.7 0.00 0.00 0.00 91 1014.6
20260905163059 12 281 3.2 20.9 0.00 0.00 0.00 91 1014.4
20260905161603 12 229 8.0 17.7 0.00 0.00 0.00 91 1014.3
20260905160055 12 271 6.4 16.1 0.00 0.00 0.00 91 1014.2
20260905154604 12 290 6.4 17.7 0.00 0.00 0.00 91 1013.9
20260905153052 12 256 4.8 12.9 0.00 0.00 0.00 91 1013.7
20260905151600 11 273 6.4 20.9 0.00 0.00 0.00 91 1013.3
20260905150047 12 278 6.4 22.5 0.00 0.00 0.00 91 1012.8
20260905144545 12 281 4.8 16.1 0.00 0.00 0.00 91 1012.6
20260905143043 12 282 8.0 24.1 0.00 0.00 0.00 90 1012.2
20260905141542 12 310 9.7 19.3 0.00 0.00 0.00 89 1012.1
20260905140038 12 271 9.7 25.7 0.00 0.00 0.00 88 1011.7
20260905134539 12 253 6.4 25.7 0.00 0.00 0.00 88 1011.4
20260905133035 12 287 11.3 22.5 0.00 0.00 0.00 86 1011.0
20260905131533 12 271 11.3 25.7 0.00 0.00 0.00 85 1010.8
20260905130034 12 231 9.7 27.4 0.00 0.00 0.00 82 1010.8
20260905124533 12 300 9.7 22.5 0.00 0.00 0.00 81 1010.4
20260905123032 12 248 14.5 27.4 0.00 0.00 0.00 79 1010.2
20260905121531 12 278 11.3 25.7 0.00 0.00 0.00 78 1010.0
20260905120031 12 276 14.5 27.4 0.00 0.00 0.00 77 1009.8
20260905114533 12 239 14.5 24.1 0.00 0.00 0.00 77 1009.8
20260905113033 12 279 11.3 27.4 0.00 0.00 0.00 76 1009.4
20260905111536 12 311 12.9 25.7 0.00 0.00 0.00 75 1009.2
20260905110031 12 238 11.3 25.7 0.00 0.00 0.00 75 1008.7
20260905104533 12 301 14.5 30.6 0.00 0.00 0.00 75 1008.7
20260905103033 12 251 14.5 29.0 0.00 0.00 0.00 75 1008.5
20260905101533 12 271 11.3 29.0 0.00 0.00 0.00 75 1008.1
20260905100035 12 288 12.9 29.0 0.00 0.00 0.00 76 1007.7
20260905094527 12 288 16.1 33.8 0.00 0.00 0.00 78 1007.6
20260905093028 12 313 8.0 22.5 0.00 0.00 0.00 81 1007.4
20260905091527 12 284 9.7 17.7 0.00 0.00 0.00 82 1006.9
20260905090027 12 267 9.7 19.3 0.00 0.00 0.00 84 1006.6
20260905084526 12 292 8.0 17.7 0.00 0.00 0.00 85 1006.0
20260905083028 12 305 9.7 19.3 0.00 0.00 0.00 84 1005.9
20260905081526 12 263 12.9 20.9 0.00 0.00 0.00 84 1005.7
20260905080032 12 300 12.9 32.2 0.00 0.00 0.00 83 1005.5
20260905074525 12 239 11.3 25.7 0.00 0.00 0.00 85 1005.1
20260905073032 12 244 11.3 22.5 0.00 0.00 0.00 85 1005.0
20260905071522 12 271 16.1 30.6 0.00 0.00 0.00 83 1005.2
20260905070029 13 266 14.5 32.2 0.00 0.00 0.00 79 1004.8
20260905064517 14 229 3.2 17.7 0.00 0.00 0.00 76 1003.8
20260905063017 14 263 8.0 22.5 0.00 0.00 0.00 77 1003.7
20260905061518 14 252 8.0 24.1 0.00 0.00 0.00 79 1003.7
20260905060017 15 236 11.3 41.8 0.00 0.00 0.00 72 1003.9
20260905054533 17 255 8.0 22.5 0.00 0.00 0.00 55 1003.3
20260905053016 18 229 14.5 25.7 0.00 0.00 0.00 53 1003.1
20260905051533 18 264 16.1 29.0 0.00 0.00 0.00 51 1003.3
20260905050014 18 237 16.1 30.6 0.00 0.00 0.00 50 1003.2
20260905044519 18 274 16.1 43.5 0.00 0.00 0.00 49 1003.2
20260905043011 19 225 14.5 37.0 0.00 0.00 0.00 50 1002.8
20260905041510 18 263 22.5 38.6 0.00 0.00 0.00 53 1002.7
20260905040008 18 265 17.7 30.6 0.00 0.00 0.00 57 1002.8
20260905034508 18 244 17.7 35.4 0.00 0.00 0.00 58 1002.9
20260905033016 17 259 16.1 40.2 0.00 0.00 0.00 59 1003.0
20260905031511 17 294 19.3 33.8 0.00 0.00 0.00 62 1003.2
20260905030006 15 267 16.1 33.8 0.00 0.00 0.00 65 1003.4
20260905024506 15 269 20.9 43.5 0.00 0.00 0.00 63 1003.4
20260905023005 16 248 16.1 37.0 0.00 0.00 0.00 66 1003.4
20260905021504 18 272 19.3 38.6 0.00 0.00 0.00 57 1002.9
20260905020005 18 310 16.1 38.6 0.00 0.00 0.00 57 1003.0
20260905014558 18 282 20.9 35.4 0.00 0.00 0.00 69 1003.4
20260905013100 17 5 6.4 29.0 0.00 0.00 0.00 72 1003.2
20260905011556 17 342 17.7 32.2 0.00 0.00 0.00 74 1003.6
20260905010104 17 294 17.7 35.4 0.00 0.00 0.00 74 1003.5
20260905004547 16 319 14.5 30.6 0.00 0.00 0.00 76 1003.8
20260905003046 16 314 14.5 30.6 0.00 0.00 0.00 76 1003.7
20260905001544 16 298 11.3 25.7 0.00 0.00 0.00 78 1003.7
20260905000042 16 311 14.5 32.2 0.00 0.00 0.00 79 1003.7
20260904234548 15 285 11.3 33.8 0.00 0.00 0.00 82 1004.0
20260904233042 15 338 8.0 30.6 0.00 0.00 0.00 86 1004.0
20260904231540 14 301 9.7 25.7 0.00 0.00 0.00 89 1004.0
20260904230040 13 271 11.3 24.1 0.00 0.00 0.00 91 1004.0
20260904224549 13 343 3.2 9.7 0.00 0.00 0.00 91 1004.1
20260904223040 13 16 4.8 12.9 0.00 0.00 0.00 91 1004.3
20260904221539 13 17 3.2 9.7 0.00 0.00 0.00 91 1004.8
20260904220037 13 319 1.6 12.9 0.00 0.00 0.00 90 1005.0
20260904214536 13 343 9.7 24.1 0.00 0.00 0.00 90 1004.1
20260904213034 13 344 9.7 19.3 0.00 0.00 0.00 90 1004.9
20260904211534 13 342 6.4 16.1 0.00 0.00 0.00 90 1005.5
20260904210034 13 323 6.4 12.9 0.00 0.00 0.00 89 1005.8
20260904204531 13 313 6.4 17.7 0.00 0.00 0.00 89 1006.0
20260904203039 14 338 4.8 14.5 0.00 0.00 0.00 89 1005.9